This demonstration page uses our WeatherBlox Daily Observations layout. Learn more.

Hourly Observations for May 17, 2015

Temp ( °F °C ) Dew Point ( °F °C ) Humidity (%) Winds ( mph kmh ) Pressure ( in mb ) Visibility ( mi km ) Precip ( " mm )
12:15 am 00:15 Clear 55 13 50 10 82 82 SSE 7 11 29.56 1001 10 16.09344 0 0
12:35 am 00:35 Partly Cloudy 54 12 50 10 88 88 S 5 7 29.59 1002 10 16.09344 0 0
12:55 am 00:55 Clear 54 12 50 10 88 88 SW 6 9 29.59 1002 10 16.09344 0 0
1:15 am 01:15 Mostly Cloudy 54 12 50 10 88 88 SSW 6 9 29.62 1003 10 16.09344 0 0
1:35 am 01:35 Cloudy 54 12 50 10 88 88 SW 8 13 29.62 1003 10 16.09344 0 0
1:55 am 01:55 Mostly Cloudy 54 12 50 10 88 88 SW 5 7 29.62 1003 10 16.09344 0 0
2:15 am 02:15 Partly Cloudy 54 12 50 10 88 88 WSW 5 7 29.62 1003 10 16.09344 0 0
2:35 am 02:35 Mostly Cloudy 55 13 50 10 82 82 SW 5 7 29.59 1002 10 16.09344 0 0
2:55 am 02:55 Cloudy 55 13 50 10 82 82 SW 5 7 29.59 1002 10 16.09344 0 0
3:15 am 03:15 Mostly Cloudy 55 13 50 10 82 82 S 9 15 29.59 1002 10 16.09344 0 0
3:35 am 03:35 Partly Cloudy 54 12 50 10 88 88 S 8 13 29.62 1003 10 16.09344 0 0
3:55 am 03:55 Clear 54 12 50 10 88 88 S 7 11 29.62 1003 10 16.09344 0 0
4:15 am 04:15 Clear 52 11 50 10 94 94 SSW 6 9 29.62 1003 10 16.09344 0 0
4:35 am 04:35 Clear 52 11 48 9 88 88 SW 6 9 29.62 1003 10 16.09344 0 0
4:55 am 04:55 Mostly Cloudy 52 11 50 10 94 94 SSW 6 9 29.62 1003 10 16.09344 0 0
5:15 am 05:15 Mostly Cloudy 52 11 50 10 94 94 Calm 29.62 1003 10 16.09344 0 0
5:35 am 05:35 Mostly Cloudy 52 11 50 10 94 94 Calm 29.59 1002 10 16.09344 0 0
5:55 am 05:55 Cloudy 52 11 50 10 94 94 SW 3 6 29.62 1003 10 16.09344 0 0
6:15 am 06:15 Cloudy 54 12 50 10 88 88 SSW 8 13 29.62 1003 10 16.09344 0 0
6:35 am 06:35 Cloudy 52 11 50 10 94 94 SW 7 11 29.62 1003 7 11.265408 0 0
6:55 am 06:55 Cloudy 54 12 52 11 94 94 WSW 10 17 29.65 1004 7 11.265408 0 0
7:15 am 07:15 Partly Cloudy 54 12 52 11 94 94 WSW 9 15 29.65 1004 10 16.09344 0 0
7:35 am 07:35 Partly Cloudy 54 12 50 10 88 88 WSW 9 15 29.65 1004 10 16.09344 0 0
7:55 am 07:55 Partly Cloudy 55 13 52 11 88 88 WSW 8 13 29.62 1003 10 16.09344 0 0
8:15 am 08:15 Partly Cloudy 55 13 52 11 88 88 W 14 22 29.62 1003 10 16.09344 0 0
8:35 am 08:35 Sunny 55 13 52 11 88 88 W 14 22 29.65 1004 10 16.09344 0 0
8:55 am 08:55 Sunny 57 14 52 11 82 82 W 9 15 29.65 1004 10 16.09344 0 0
9:15 am 09:15 Sunny 59 15 52 11 77 77 W 13 20 29.65 1004 10 16.09344 0 0
9:35 am 09:35 Sunny 61 16 54 12 77 77 W 18 30 29.65 1004 10 16.09344 0 0
9:55 am 09:55 Sunny 63 17 54 12 73 73 W 20 31 29.62 1003 10 16.09344 0 0
10:15 am 10:15 Sunny 64 18 52 11 64 64 W 17 28 29.65 1004 10 16.09344 0 0
10:35 am 10:35 Sunny 66 19 52 11 60 60 WSW 13 20 29.65 1004 10 16.09344 0 0
10:55 am 10:55 Sunny 68 20 52 11 56 56 W 16 26 29.65 1004 10 16.09344 0 0
11:15 am 11:15 Sunny 68 20 52 11 56 56 W 14 22 29.65 1004 10 16.09344 0 0
11:35 am 11:35 Sunny 68 20 52 11 56 56 WSW 15 24 29.68 1005 10 16.09344 0 0
11:55 am 11:55 Sunny 70 21 50 10 50 50 W 15 24 29.65 1004 10 16.09344 0 0
12:15 pm 12:15 Sunny 70 21 52 11 53 53 W 13 20 29.68 1005 10 16.09344 0 0
12:35 pm 12:35 Sunny 72 22 52 11 50 50 W 13 20 29.68 1005 10 16.09344 0 0
12:55 pm 12:55 Sunny 72 22 50 10 47 47 WNW 14 22 29.68 1005 10 16.09344 0 0
1:15 pm 13:15 Sunny 73 23 48 9 41 41 WNW 10 17 29.68 1005 10 16.09344 0 0
1:35 pm 13:35 Sunny 73 23 48 9 41 41 W 13 20 29.68 1005 10 16.09344 0 0
1:55 pm 13:55 Partly Cloudy 73 23 48 9 41 41 W 12 19 29.68 1005 10 16.09344 0 0
2:15 pm 14:15 Partly Cloudy 73 23 48 9 41 41 WNW 10 17 29.68 1005 10 16.09344 0 0
2:35 pm 14:35 Partly Cloudy 73 23 46 8 38 38 W 13 20 29.68 1005 10 16.09344 0 0
2:55 pm 14:55 Partly Cloudy 73 23 46 8 38 38 W 14 22 29.68 1005 10 16.09344 0 0
3:15 pm 15:15 Partly Cloudy 77 25 45 7 32 32 W 15 24 29.65 1004 10 16.09344 0 0
3:35 pm 15:35 Mostly Cloudy 75 24 45 7 34 34 W 12 19 29.71 1006 10 16.09344 0 0
3:55 pm 15:55 Partly Cloudy 77 25 45 7 32 32 W 15 24 29.68 1005 10 16.09344 0 0
4:15 pm 16:15 Partly Cloudy 75 24 43 6 31 31 WSW 12 19 29.71 1006 10 16.09344 0 0
4:35 pm 16:35 Partly Cloudy 77 25 43 6 30 30 W 15 24 29.68 1005 10 16.09344 0 0
4:55 pm 16:55 Partly Cloudy 77 25 45 7 32 32 WSW 14 22 29.68 1005 10 16.09344 0 0
5:15 pm 17:15 Sunny 77 25 41 5 28 28 W 14 22 29.68 1005 10 16.09344 0 0
5:35 pm 17:35 Partly Cloudy 75 24 41 5 29 29 W 12 19 29.74 1007 10 16.09344 0 0
5:55 pm 17:55 Partly Cloudy 77 25 43 6 30 30 WNW 12 19 29.74 1007 10 16.09344 0 0
6:15 pm 18:15 Partly Cloudy 73 23 46 8 38 38 NNW 9 15 29.74 1007 10 16.09344 0 0
6:35 pm 18:35 Partly Cloudy 72 22 46 8 41 41 NNW 10 17 29.77 1008 10 16.09344 0 0
6:55 pm 18:55 Cloudy with Rain 64 18 48 9 56 56 WNW 22 35 29.88 1012 10 16.09344 0 0
7:15 pm 19:15 Mostly Cloudy with Nearby Thunderstorms 61 16 52 11 72 72 N 12 19 29.85 1011 10 16.09344 0.01 0.254
7:35 pm 19:35 Partly Cloudy 63 17 54 12 73 73 NNW 10 17 29.88 1012 10 16.09344 0.01 0.254
7:55 pm 19:55 Partly Cloudy 63 17 52 11 68 68 N 6 9 29.88 1012 10 16.09344 0.01 0.254
8:15 pm 20:15 Sunny 61 16 54 12 77 77 NNE 3 6 29.88 1012 10 16.09344 0 0
8:35 pm 20:35 Sunny 61 16 54 12 77 77 Calm 29.91 1013 10 16.09344 0 0
8:55 pm 20:55 Partly Cloudy 59 15 54 12 82 82 Calm 29.94 1014 10 16.09344 0 0
9:15 pm 21:15 Clear 59 15 54 12 82 82 Calm 29.94 1014 10 16.09344 0 0
9:35 pm 21:35 Clear 59 15 54 12 82 82 Calm 29.97 1015 10 16.09344 0 0
9:55 pm 21:55 Clear 59 15 54 12 82 82 Calm 29.97 1015 10 16.09344 0 0
10:15 pm 22:15 Clear 59 15 52 11 77 77 Calm 29.97 1015 10 16.09344 0 0
10:35 pm 22:35 Clear 57 14 52 11 82 82 WNW 5 7 30 1016 10 16.09344 0 0
10:55 pm 22:55 Clear 57 14 52 11 82 82 N 10 17 30 1016 10 16.09344 0 0
11:15 pm 23:15 Clear 57 14 52 11 82 82 N 12 19 30.03 1017 10 16.09344 0 0
11:35 pm 23:35 Clear 57 14 52 11 82 82 N 9 15 30.03 1017 10 16.09344 0 0
11:55 pm 23:55 Clear 55 13 50 10 82 82 N 10 17 30.06 1018 10 16.09344 0 0

Powered by AerisWeather